Location: Unspecified
(40.8819°N, 0.0000°E)
Time: 22:06:37
(UTC+00:00)

NANOSAT C BR1 - Visible Passes

Search period start: 24 April 2024 00:00
Search period end: 04 May 2024 00:00
Orbit: 556 x 566 km, 98.1° (Epoch: 23 April)

Date Brightness Start Highest point End Pass type
(mag) Time Alt. Az. Time Alt. Az. Time Alt. Az.
24 Apr ? 03:52:44 10° NNE 03:56:48 88° ESE 04:00:49 10° SSW visible
25 Apr ? 03:51:47 10° NNE 03:55:49 85° E 03:59:51 10° SSW visible
26 Apr ? 03:50:47 10° NNE 03:54:49 83° E 03:58:51 10° SSW visible
27 Apr ? 03:49:44 10° NNE 03:53:47 80° ESE 03:57:49 10° S visible
28 Apr ? 03:48:40 10° NNE 03:52:43 77° ESE 03:56:44 10° S visible
29 Apr ? 03:47:33 10° NNE 03:51:36 74° ESE 03:55:37 10° S visible
30 Apr ? 03:46:25 10° NNE 03:50:27 71° ESE 03:54:28 10° S visible
01 May ? 03:45:14 10° NNE 03:49:16 68° ESE 03:53:15 10° S visible
02 May ? 03:44:01 10° NNE 03:48:02 66° ESE 03:52:01 10° S visible
03 May ? 03:42:45 10° NNE 03:46:46 63° ESE 03:50:45 10° S visible
